This demonstration page uses our WeatherBlox Daily Observations layout. Learn more.

Left ArrowRight Arrow

Hourly Observations for April 30, 2018

Temp ( °F °C ) Dew Point ( °F °C ) Humidity (%) Winds ( mph kmh ) Pressure ( in mb ) Visibility ( mi km ) Precip ( " mm )
12:51 am 00:51 Clear 70 21.1 16 -8.9 12 12 W 10 17 29.72 1006 10 16 0.00 0.00
1:51 am 01:51 Clear 67 19.4 15 -9.4 13 13 WNW 6 9 29.70 1006 10 16 0.00 0.00
2:51 am 02:51 Clear 67 19.4 17 -8.3 15 15 WNW 6 9 29.70 1006 10 16 0.00 0.00
3:51 am 03:51 Clear 65 18.3 17 -8.3 16 16 NW 6 9 29.71 1006 10 16 0.00 0.00
4:51 am 04:51 Clear 63 17.2 16 -8.9 16 16 WNW 7 11 29.72 1007 10 16 0.00 0.00
5:51 am 05:51 Sunny 58 14.4 17 -8.3 20 20 Calm 29.75 1007 10 16 0.00 0.00
6:51 am 06:51 Sunny 65 18.3 17 -8.3 16 16 Calm 29.76 1008 10 16 0.00 0.00
7:51 am 07:51 Sunny 67 19.4 17 -8.3 15 15 Calm 29.78 1008 10 16 0.00 0.00
8:51 am 08:51 Sunny 71 21.7 17 -8.3 13 13 Calm 29.77 1008 10 16 0.00 0.00
9:51 am 09:51 Sunny 74 23.3 18 -7.8 12 12 VRB 5 7 29.78 1008 10 16 0.00 0.00
10:51 am 10:51 Sunny 77 25 18 -7.8 11 11 WNW 8 13 29.76 1008 10 16 0.00 0.00
11:51 am 11:51 Sunny 80 26.7 16 -8.9 9 9 W 9 15 29.73 1007 10 16 0.00 0.00
12:51 pm 12:51 Sunny 81 27.2 15 -9.4 8 8 N 8 13 29.71 1006 10 16 0.00 0.00
1:51 pm 13:51 Sunny 82 27.8 15 -9.4 8 8 VRB 6 9 29.68 1005 10 16 0.00 0.00
2:51 pm 14:51 Sunny 82 27.8 13 -10.6 7 7 SSE 5 7 29.64 1004 10 16 0.00 0.00
3:51 pm 15:51 Sunny 83 28.3 15 -9.4 8 8 WSW 8 13 29.62 1003 10 16 0.00 0.00
4:51 pm 16:51 Sunny 82 27.8 15 -9.4 8 8 WNW 22 35 29.62 1003 10 16 0.00 0.00
5:51 pm 17:51 Sunny 81 27.2 14 -10 8 8 W 22 35 29.63 1003 10 16 0.00 0.00
6:51 pm 18:51 Sunny 78 25.6 15 -9.4 9 9 W 18 30 29.63 1004 10 16 0.00 0.00
7:51 pm 19:51 Clear 75 23.9 17 -8.3 11 11 WNW 13 20 29.65 1004 10 16 0.00 0.00
8:51 pm 20:51 Clear 72 22.2 19 -7.2 13 13 WNW 12 19 29.65 1004 10 16 0.00 0.00
9:51 pm 21:51 Clear 71 21.7 27 -2.8 19 19 NW 16 26 29.66 1004 10 16 0.00 0.00
10:51 pm 22:51 Clear 69 20.6 28 -2.2 22 22 WNW 9 15 29.67 1005 10 16 0.00 0.00
11:51 pm 23:51 Clear 67 19.4 27 -2.8 22 22 WNW 8 13 29.67 1005 10 16 0.00 0.00

Powered by AerisWeather